EA5JMY-13 Weather Reports


Display with metric or nautical units.
time (UTC)temp
F
wind
direction
speed
MPH
gust
MPH
rain 1hr
in
rain 24hr
in
rain mn
in
humidity
%
barometer
mb
20260507123931 74 0.0 0.0 0.00 0.00 0.00 45 1012.2
20260507123731 74 0.0 0.0 0.00 0.00 0.00 45 1012.2
20260507123531 74 0.0 0.0 0.00 0.00 0.00 44 1012.1
20260507123331 74 0.0 0.0 0.00 0.00 0.00 44 1012.1
20260507123131 74 0.0 0.0 0.00 0.00 0.00 43 1012.2
20260507122931 74 0.0 0.0 0.00 0.00 0.00 43 1012.2
20260507122731 73 0.0 0.0 0.00 0.00 0.00 44 1012.2
20260507122531 73 0.0 0.0 0.00 0.00 0.00 45 1012.2
20260507122331 74 0.0 0.0 0.00 0.00 0.00 45 1012.2
20260507122131 73 0.0 0.0 0.00 0.00 0.00 46 1012.2
20260507121931 74 0.0 0.0 0.00 0.00 0.00 45 1012.2
20260507121731 74 0.0 0.0 0.00 0.00 0.00 46 1012.3
20260507121531 74 0.0 0.0 0.00 0.00 0.00 46 1012.3
20260507121331 74 0.0 0.0 0.00 0.00 0.00 46 1012.3
20260507121131 74 0.0 0.0 0.00 0.00 0.00 47 1012.3
20260507120931 74 0.0 0.0 0.00 0.00 0.00 47 1012.3
20260507120731 73 0.0 0.0 0.00 0.00 0.00 48 1012.4
20260507120531 73 0.0 0.0 0.00 0.00 0.00 49 1012.4
20260507120331 74 0.0 0.0 0.00 0.00 0.00 48 1012.4
20260507120131 73 0.0 0.0 0.00 0.00 0.00 48 1012.5
20260507115931 73 0.0 0.0 0.00 0.00 0.00 49 1012.6
20260507115731 73 0.0 0.0 0.00 0.00 0.00 49 1012.7
20260507115531 73 0.0 0.0 0.00 0.00 0.00 50 1012.7
20260507115331 73 0.0 0.0 0.00 0.00 0.00 50 1012.7
20260507115131 74 0.0 0.0 0.00 0.00 0.00 50 1012.8
20260507114931 74 0.0 0.0 0.00 0.00 0.00 50 1012.8
20260507114731 73 0.0 0.0 0.00 0.00 0.00 50 1012.8
20260507114531 74 0.0 0.0 0.00 0.00 0.00 49 1012.8
20260507114331 74 0.0 0.0 0.00 0.00 0.00 49 1012.7
20260507114131 74 0.0 0.0 0.00 0.00 0.00 49 1012.9
20260507113931 74 0.0 0.0 0.00 0.00 0.00 49 1012.9
20260507113731 73 0.0 0.0 0.00 0.00 0.00 50 1012.9
20260507113531 74 0.0 0.0 0.00 0.00 0.00 49 1012.9
20260507113331 73 0.0 0.0 0.00 0.00 0.00 50 1012.9
20260507113131 73 0.0 0.0 0.00 0.00 0.00 50 1012.8
20260507112931 74 0.0 0.0 0.00 0.00 0.00 49 1012.8
20260507112731 74 0.0 0.0 0.00 0.00 0.00 49 1012.8
20260507112531 74 0.0 0.0 0.00 0.00 0.00 49 1012.9
20260507112331 74 0.0 0.0 0.00 0.00 0.00 49 1012.9
20260507112131 74 0.0 0.0 0.00 0.00 0.00 49 1013.0
20260507111931 74 0.0 0.0 0.00 0.00 0.00 50 1013.0
20260507111731 73 0.0 0.0 0.00 0.00 0.00 50 1013.1
20260507111531 73 0.0 0.0 0.00 0.00 0.00 50 1013.1
20260507111331 74 0.0 0.0 0.00 0.00 0.00 51 1013.2
20260507111131 74 0.0 0.0 0.00 0.00 0.00 52 1013.1
20260507110931 74 0.0 0.0 0.00 0.00 0.00 53 1013.1
20260507110731 74 0.0 0.0 0.00 0.00 0.00 53 1013.1
20260507110531 74 0.0 0.0 0.00 0.00 0.00 52 1013.1
20260507110331 74 0.0 0.0 0.00 0.00 0.00 53 1013.2
20260507110131 74 0.0 0.0 0.00 0.00 0.00 53 1013.2
20260507105931 74 0.0 0.0 0.00 0.00 0.00 52 1013.2
20260507105731 74 0.0 0.0 0.00 0.00 0.00 52 1013.2
20260507105531 74 0.0 0.0 0.00 0.00 0.00 52 1013.2
20260507105331 74 0.0 0.0 0.00 0.00 0.00 51 1013.2
20260507105131 74 0.0 0.0 0.00 0.00 0.00 52 1013.2
20260507104931 74 0.0 0.0 0.00 0.00 0.00 52 1013.2
20260507104731 74 0.0 0.0 0.00 0.00 0.00 52 1013.2
20260507104531 74 0.0 0.0 0.00 0.00 0.00 52 1013.2
20260507104331 74 0.0 0.0 0.00 0.00 0.00 51 1013.3
20260507104131 74 0.0 0.0 0.00 0.00 0.00 50 1013.3
20260507103931 74 0.0 0.0 0.00 0.00 0.00 47 1013.2
20260507103731 74 0.0 0.0 0.00 0.00 0.00 46 1013.2
20260507103531 74 0.0 0.0 0.00 0.00 0.00 46 1013.2
20260507103331 74 0.0 0.0 0.00 0.00 0.00 48 1013.2
20260507103131 74 0.0 0.0 0.00 0.00 0.00 48 1013.1
20260507102931 74 0.0 0.0 0.00 0.00 0.00 50 1012.9
20260507102731 74 0.0 0.0 0.00 0.00 0.00 51 1013.1
20260507102531 74 0.0 0.0 0.00 0.00 0.00 52 1013.1
20260507102331 74 0.0 0.0 0.00 0.00 0.00 50 1013.1
20260507102131 74 0.0 0.0 0.00 0.00 0.00 51 1013.2
20260507101931 74 0.0 0.0 0.00 0.00 0.00 51 1013.2
20260507101731 74 0.0 0.0 0.00 0.00 0.00 51 1013.2
20260507101531 74 0.0 0.0 0.00 0.00 0.00 49 1013.1
20260507101331 74 0.0 0.0 0.00 0.00 0.00 50 1013.1
20260507101131 74 0.0 0.0 0.00 0.00 0.00 50 1013.3
20260507100931 74 0.0 0.0 0.00 0.00 0.00 49 1013.1
20260507100731 74 0.0 0.0 0.00 0.00 0.00 48 1013.2
20260507100531 75 0.0 0.0 0.00 0.00 0.00 48 1013.2
20260507100331 74 0.0 0.0 0.00 0.00 0.00 48 1013.2
20260507100131 75 0.0 0.0 0.00 0.00 0.00 48 1013.2
20260507095931 74 0.0 0.0 0.00 0.00 0.00 48 1013.2
20260507095731 75 0.0 0.0 0.00 0.00 0.00 47 1013.1
20260507095531 75 0.0 0.0 0.00 0.00 0.00 47 1013.1
20260507095331 74 0.0 0.0 0.00 0.00 0.00 47 1013.1
20260507095131 74 0.0 0.0 0.00 0.00 0.00 47 1013.2
20260507094931 75 0.0 0.0 0.00 0.00 0.00 46 1013.2
20260507094732 75 0.0 0.0 0.00 0.00 0.00 46 1013.1
20260507094531 75 0.0 0.0 0.00 0.00 0.00 46 1013.0
20260507094331 75 0.0 0.0 0.00 0.00 0.00 45 1013.1
20260507094131 75 0.0 0.0 0.00 0.00 0.00 46 1013.2
20260507093931 75 0.0 0.0 0.00 0.00 0.00 45 1013.1
20260507093731 75 0.0 0.0 0.00 0.00 0.00 45 1013.1
20260507093531 75 0.0 0.0 0.00 0.00 0.00 45 1013.0
20260507093331 75 0.0 0.0 0.00 0.00 0.00 45 1013.1
20260507093131 75 0.0 0.0 0.00 0.00 0.00 45 1013.2
20260507092931 75 0.0 0.0 0.00 0.00 0.00 45 1013.2
20260507092731 75 0.0 0.0 0.00 0.00 0.00 45 1013.2
20260507092531 75 0.0 0.0 0.00 0.00 0.00 46 1013.0
20260507092331 75 0.0 0.0 0.00 0.00 0.00 45 1013.1
20260507092131 75 0.0 0.0 0.00 0.00 0.00 45 1013.1
20260507091931 75 0.0 0.0 0.00 0.00 0.00 45 1013.0
20260507091731 75 0.0 0.0 0.00 0.00 0.00 45 1013.1
20260507091531 75 0.0 0.0 0.00 0.00 0.00 45 1013.0
20260507091331 74 0.0 0.0 0.00 0.00 0.00 46 1013.1
20260507091131 74 0.0 0.0 0.00 0.00 0.00 46 1013.0
20260507090931 74 0.0 0.0 0.00 0.00 0.00 46 1013.1
20260507090731 74 0.0 0.0 0.00 0.00 0.00 46 1013.0
20260507090531 75 0.0 0.0 0.00 0.00 0.00 46 1012.9
20260507090331 74 0.0 0.0 0.00 0.00 0.00 47 1012.9
20260507090131 74 0.0 0.0 0.00 0.00 0.00 47 1013.0
20260507085931 74 0.0 0.0 0.00 0.00 0.00 47 1013.0
20260507085731 74 0.0 0.0 0.00 0.00 0.00 47 1013.0
20260507085531 75 0.0 0.0 0.00 0.00 0.00 46 1013.1
20260507085331 75 0.0 0.0 0.00 0.00 0.00 47 1013.1
20260507085131 75 0.0 0.0 0.00 0.00 0.00 47 1013.1
20260507084931 75 0.0 0.0 0.00 0.00 0.00 47 1013.0
20260507084731 74 0.0 0.0 0.00 0.00 0.00 47 1013.0
20260507084531 74 0.0 0.0 0.00 0.00 0.00 47 1013.1
20260507084331 74 0.0 0.0 0.00 0.00 0.00 48 1013.0
20260507084131 74 0.0 0.0 0.00 0.00 0.00 47 1013.1
20260507083932 74 0.0 0.0 0.00 0.00 0.00 47 1013.1
20260507083731 74 0.0 0.0 0.00 0.00 0.00 47 1013.1
20260507083531 75 0.0 0.0 0.00 0.00 0.00 47 1013.1
20260507083331 74 0.0 0.0 0.00 0.00 0.00 48 1013.2
20260507083131 74 0.0 0.0 0.00 0.00 0.00 48 1013.0
20260507082931 74 0.0 0.0 0.00 0.00 0.00 47 1013.0
20260507082731 74 0.0 0.0 0.00 0.00 0.00 47 1013.1
20260507082531 74 0.0 0.0 0.00 0.00 0.00 48 1013.1
20260507082331 74 0.0 0.0 0.00 0.00 0.00 47 1013.1
20260507082131 74 0.0 0.0 0.00 0.00 0.00 47 1013.0
20260507081931 74 0.0 0.0 0.00 0.00 0.00 48 1013.0
20260507081731 73 0.0 0.0 0.00 0.00 0.00 48 1013.0
20260507081531 73 0.0 0.0 0.00 0.00 0.00 48 1013.1
20260507081331 73 0.0 0.0 0.00 0.00 0.00 48 1013.2
20260507081131 73 0.0 0.0 0.00 0.00 0.00 47 1013.2
20260507080931 74 0.0 0.0 0.00 0.00 0.00 47 1013.2
20260507080731 73 0.0 0.0 0.00 0.00 0.00 47 1013.1
20260507080531 73 0.0 0.0 0.00 0.00 0.00 48 1013.2
20260507080331 73 0.0 0.0 0.00 0.00 0.00 47 1013.2
20260507080131 74 0.0 0.0 0.00 0.00 0.00 46 1013.2
20260507075931 74 0.0 0.0 0.00 0.00 0.00 45 1013.2
20260507075731 74 0.0 0.0 0.00 0.00 0.00 45 1013.1
20260507075531 75 0.0 0.0 0.00 0.00 0.00 44 1013.1
20260507075331 75 0.0 0.0 0.00 0.00 0.00 43 1013.2
20260507075131 75 0.0 0.0 0.00 0.00 0.00 43 1013.0
20260507074931 75 0.0 0.0 0.00 0.00 0.00 42 1013.1
20260507074731 75 0.0 0.0 0.00 0.00 0.00 40 1013.1
20260507074531 75 0.0 0.0 0.00 0.00 0.00 40 1013.1
20260507074331 76 0.0 0.0 0.00 0.00 0.00 39 1013.1
20260507074131 76 0.0 0.0 0.00 0.00 0.00 38 1013.1
20260507073931 76 0.0 0.0 0.00 0.00 0.00 37 1013.1
20260507073731 76 0.0 0.0 0.00 0.00 0.00 37 1013.1
20260507073531 76 0.0 0.0 0.00 0.00 0.00 37 1013.0
20260507073331 76 0.0 0.0 0.00 0.00 0.00 36 1013.0
20260507073131 77 0.0 0.0 0.00 0.00 0.00 36 1013.1
20260507072931 77 0.0 0.0 0.00 0.00 0.00 36 1013.1
20260507072731 77 0.0 0.0 0.00 0.00 0.00 35 1013.1
20260507072531 78 0.0 0.0 0.00 0.00 0.00 34 1013.0
20260507072331 78 0.0 0.0 0.00 0.00 0.00 34 1013.0
20260507072131 79 0.0 0.0 0.00 0.00 0.00 33 1012.9
20260507071931 79 0.0 0.0 0.00 0.00 0.00 33 1012.8
20260507071731 79 0.0 0.0 0.00 0.00 0.00 33 1012.9
20260507071531 78 0.0 0.0 0.00 0.00 0.00 34 1012.8
20260507071331 75 0.0 0.0 0.00 0.00 0.00 36 1012.9
20260507071131 75 0.0 0.0 0.00 0.00 0.00 36 1012.9
20260507070931 75 0.0 0.0 0.00 0.00 0.00 36 1012.8
20260507070731 75 0.0 0.0 0.00 0.00 0.00 36 1012.9
20260507070531 75 0.0 0.0 0.00 0.00 0.00 35 1012.8
20260507070331 75 0.0 0.0 0.00 0.00 0.00 36 1012.8
20260507070131 75 0.0 0.0 0.00 0.00 0.00 36 1012.8
20260507065931 75 0.0 0.0 0.00 0.00 0.00 36 1012.8
20260507065731 75 0.0 0.0 0.00 0.00 0.00 36 1012.7
20260507065531 75 0.0 0.0 0.00 0.00 0.00 35 1012.7
20260507065331 75 0.0 0.0 0.00 0.00 0.00 35 1012.7
20260507065131 75 0.0 0.0 0.00 0.00 0.00 35 1012.8
20260507064931 75 0.0 0.0 0.00 0.00 0.00 35 1012.7
20260507064731 75 0.0 0.0 0.00 0.00 0.00 36 1012.7
20260507064531 75 0.0 0.0 0.00 0.00 0.00 36 1012.7
20260507064331 75 0.0 0.0 0.00 0.00 0.00 36 1012.7
20260507064131 75 0.0 0.0 0.00 0.00 0.00 37 1012.6
20260507063931 75 0.0 0.0 0.00 0.00 0.00 37 1012.6
20260507063731 75 0.0 0.0 0.00 0.00 0.00 36 1012.6
20260507063531 75 0.0 0.0 0.00 0.00 0.00 37 1012.7
20260507063331 75 0.0 0.0 0.00 0.00 0.00 37 1012.6
20260507063131 75 0.0 0.0 0.00 0.00 0.00 37 1012.6
20260507062931 75 0.0 0.0 0.00 0.00 0.00 36 1012.6
20260507062731 75 0.0 0.0 0.00 0.00 0.00 37 1012.6
20260507062531 75 0.0 0.0 0.00 0.00 0.00 37 1012.6
20260507062331 75 0.0 0.0 0.00 0.00 0.00 37 1012.6
20260507062131 75 0.0 0.0 0.00 0.00 0.00 36 1012.6
20260507061931 75 0.0 0.0 0.00 0.00 0.00 37 1012.5
20260507061731 75 0.0 0.0 0.00 0.00 0.00 37 1012.5
20260507061531 75 0.0 0.0 0.00 0.00 0.00 36 1012.5
20260507061331 75 0.0 0.0 0.00 0.00 0.00 37 1012.6
20260507061131 75 0.0 0.0 0.00 0.00 0.00 38 1012.5
20260507060931 75 0.0 0.0 0.00 0.00 0.00 38 1012.5
20260507060731 75 0.0 0.0 0.00 0.00 0.00 37 1012.5
20260507060531 75 0.0 0.0 0.00 0.00 0.00 37 1012.4
20260507060331 75 0.0 0.0 0.00 0.00 0.00 38 1012.4
20260507060131 75 0.0 0.0 0.00 0.00 0.00 37 1012.4
20260507055931 75 0.0 0.0 0.00 0.00 0.00 37 1012.4
20260507055731 75 0.0 0.0 0.00 0.00 0.00 37 1012.4
20260507055531 75 0.0 0.0 0.00 0.00 0.00 37 1012.3
20260507055331 75 0.0 0.0 0.00 0.00 0.00 38 1012.4
20260507055131 75 0.0 0.0 0.00 0.00 0.00 38 1012.3
20260507054931 75 0.0 0.0 0.00 0.00 0.00 38 1012.3
20260507054731 75 0.0 0.0 0.00 0.00 0.00 38 1012.3
20260507054531 75 0.0 0.0 0.00 0.00 0.00 38 1012.4
20260507054331 75 0.0 0.0 0.00 0.00 0.00 38 1012.3
20260507054131 75 0.0 0.0 0.00 0.00 0.00 38 1012.3
20260507053931 75 0.0 0.0 0.00 0.00 0.00 38 1012.4
20260507053731 75 0.0 0.0 0.00 0.00 0.00 38 1012.4
20260507053531 75 0.0 0.0 0.00 0.00 0.00 38 1012.3
20260507053331 75 0.0 0.0 0.00 0.00 0.00 38 1012.3
20260507053131 75 0.0 0.0 0.00 0.00 0.00 38 1012.4
20260507052931 75 0.0 0.0 0.00 0.00 0.00 38 1012.3
20260507052731 75 0.0 0.0 0.00 0.00 0.00 38 1012.3
20260507052531 75 0.0 0.0 0.00 0.00 0.00 38 1012.3
20260507052331 75 0.0 0.0 0.00 0.00 0.00 38 1012.4
20260507052131 75 0.0 0.0 0.00 0.00 0.00 38 1012.3
20260507051931 75 0.0 0.0 0.00 0.00 0.00 38 1012.4
20260507051731 75 0.0 0.0 0.00 0.00 0.00 39 1012.3
20260507051531 75 0.0 0.0 0.00 0.00 0.00 39 1012.4
20260507051331 75 0.0 0.0 0.00 0.00 0.00 39 1012.4
20260507051131 75 0.0 0.0 0.00 0.00 0.00 39 1012.3
20260507050931 75 0.0 0.0 0.00 0.00 0.00 39 1012.3
20260507050731 75 0.0 0.0 0.00 0.00 0.00 39 1012.2
20260507050531 75 0.0 0.0 0.00 0.00 0.00 39 1012.2
20260507050331 75 0.0 0.0 0.00 0.00 0.00 38 1012.2
20260507050131 75 0.0 0.0 0.00 0.00 0.00 37 1012.1
20260507045931 75 0.0 0.0 0.00 0.00 0.00 37 1012.0
20260507045731 75 0.0 0.0 0.00 0.00 0.00 38 1012.0
20260507045531 75 0.0 0.0 0.00 0.00 0.00 37 1011.9
20260507045331 75 0.0 0.0 0.00 0.00 0.00 37 1011.9
20260507045131 75 0.0 0.0 0.00 0.00 0.00 37 1011.8
20260507044931 75 0.0 0.0 0.00 0.00 0.00 36 1011.8
20260507044731 75 0.0 0.0 0.00 0.00 0.00 36 1011.8
20260507044531 75 0.0 0.0 0.00 0.00 0.00 36 1011.7
20260507044331 75 0.0 0.0 0.00 0.00 0.00 37 1011.6
20260507044131 75 0.0 0.0 0.00 0.00 0.00 37 1011.7
20260507043931 75 0.0 0.0 0.00 0.00 0.00 36 1011.6
20260507043731 75 0.0 0.0 0.00 0.00 0.00 36 1011.7
20260507043531 75 0.0 0.0 0.00 0.00 0.00 36 1011.7
20260507043331 75 0.0 0.0 0.00 0.00 0.00 37 1011.6
20260507043131 75 0.0 0.0 0.00 0.00 0.00 36 1011.6
20260507042931 75 0.0 0.0 0.00 0.00 0.00 36 1011.5
20260507042731 75 0.0 0.0 0.00 0.00 0.00 37 1011.7
20260507042531 75 0.0 0.0 0.00 0.00 0.00 37 1011.5
20260507042331 75 0.0 0.0 0.00 0.00 0.00 37 1011.6
20260507042131 75 0.0 0.0 0.00 0.00 0.00 37 1011.6
20260507041931 75 0.0 0.0 0.00 0.00 0.00 36 1011.5
20260507041731 75 0.0 0.0 0.00 0.00 0.00 36 1011.5
20260507041531 75 0.0 0.0 0.00 0.00 0.00 37 1011.5
20260507041331 75 0.0 0.0 0.00 0.00 0.00 37 1011.6
20260507041131 75 0.0 0.0 0.00 0.00 0.00 37 1011.6
20260507040931 75 0.0 0.0 0.00 0.00 0.00 37 1011.6
20260507040731 75 0.0 0.0 0.00 0.00 0.00 37 1011.6
20260507040531 75 0.0 0.0 0.00 0.00 0.00 37 1011.7
20260507040331 75 0.0 0.0 0.00 0.00 0.00 37 1011.6
20260507040131 75 0.0 0.0 0.00 0.00 0.00 37 1011.7
20260507035931 75 0.0 0.0 0.00 0.00 0.00 37 1011.7
20260507035731 75 0.0 0.0 0.00 0.00 0.00 37 1011.6
20260507035531 75 0.0 0.0 0.00 0.00 0.00 37 1011.5
20260507035331 75 0.0 0.0 0.00 0.00 0.00 37 1011.7
20260507035131 75 0.0 0.0 0.00 0.00 0.00 37 1011.6
20260507034931 75 0.0 0.0 0.00 0.00 0.00 37 1011.7
20260507034731 75 0.0 0.0 0.00 0.00 0.00 37 1011.7
20260507034531 75 0.0 0.0 0.00 0.00 0.00 37 1011.7
20260507034331 75 0.0 0.0 0.00 0.00 0.00 36 1011.7
20260507034131 75 0.0 0.0 0.00 0.00 0.00 36 1011.7
20260507033931 75 0.0 0.0 0.00 0.00 0.00 36 1011.6
20260507033731 75 0.0 0.0 0.00 0.00 0.00 36 1011.7
20260507033531 76 0.0 0.0 0.00 0.00 0.00 36 1011.8
20260507033331 76 0.0 0.0 0.00 0.00 0.00 36 1011.8
20260507033131 76 0.0 0.0 0.00 0.00 0.00 36 1011.8
20260507032931 76 0.0 0.0 0.00 0.00 0.00 36 1011.8
20260507032731 76 0.0 0.0 0.00 0.00 0.00 36 1011.8
20260507032531 76 0.0 0.0 0.00 0.00 0.00 36 1011.9
20260507032331 76 0.0 0.0 0.00 0.00 0.00 36 1011.8
20260507032131 76 0.0 0.0 0.00 0.00 0.00 36 1011.9
20260507031931 76 0.0 0.0 0.00 0.00 0.00 36 1012.0
20260507031731 75 0.0 0.0 0.00 0.00 0.00 36 1012.0
20260507031531 75 0.0 0.0 0.00 0.00 0.00 36 1012.0
20260507031331 75 0.0 0.0 0.00 0.00 0.00 36 1011.9
20260507031131 75 0.0 0.0 0.00 0.00 0.00 36 1011.9
20260507030931 76 0.0 0.0 0.00 0.00 0.00 36 1011.9
20260507030731 76 0.0 0.0 0.00 0.00 0.00 36 1011.9
20260507030531 76 0.0 0.0 0.00 0.00 0.00 37 1011.9
20260507030331 76 0.0 0.0 0.00 0.00 0.00 37 1012.0
20260507030131 76 0.0 0.0 0.00 0.00 0.00 37 1011.9
20260507025931 75 0.0 0.0 0.00 0.00 0.00 37 1012.0
20260507025731 75 0.0 0.0 0.00 0.00 0.00 37 1012.1
20260507025531 76 0.0 0.0 0.00 0.00 0.00 37 1012.1
20260507025331 76 0.0 0.0 0.00 0.00 0.00 36 1012.1
20260507025131 76 0.0 0.0 0.00 0.00 0.00 36 1012.1
20260507024931 76 0.0 0.0 0.00 0.00 0.00 37 1012.1
20260507024731 76 0.0 0.0 0.00 0.00 0.00 37 1012.1
20260507024531 76 0.0 0.0 0.00 0.00 0.00 37 1012.1
20260507024331 76 0.0 0.0 0.00 0.00 0.00 37 1012.2
20260507024131 76 0.0 0.0 0.00 0.00 0.00 37 1012.0
20260507023931 76 0.0 0.0 0.00 0.00 0.00 37 1012.1
20260507023731 76 0.0 0.0 0.00 0.00 0.00 37 1012.0
20260507023531 76 0.0 0.0 0.00 0.00 0.00 37 1012.1
20260507023331 76 0.0 0.0 0.00 0.00 0.00 37 1012.1
20260507023131 76 0.0 0.0 0.00 0.00 0.00 37 1012.1
20260507022931 76 0.0 0.0 0.00 0.00 0.00 37 1012.1
20260507022731 76 0.0 0.0 0.00 0.00 0.00 37 1012.0
20260507022531 76 0.0 0.0 0.00 0.00 0.00 37 1012.0
20260507022331 76 0.0 0.0 0.00 0.00 0.00 37 1012.0
20260507022131 76 0.0 0.0 0.00 0.00 0.00 37 1012.1
20260507021931 76 0.0 0.0 0.00 0.00 0.00 37 1012.1
20260507021731 76 0.0 0.0 0.00 0.00 0.00 37 1012.1
20260507021531 76 0.0 0.0 0.00 0.00 0.00 37 1012.1
20260507021331 76 0.0 0.0 0.00 0.00 0.00 37 1012.1
20260507021131 76 0.0 0.0 0.00 0.00 0.00 37 1012.2
20260507020931 76 0.0 0.0 0.00 0.00 0.00 37 1012.1
20260507020731 76 0.0 0.0 0.00 0.00 0.00 37 1012.1
20260507020531 76 0.0 0.0 0.00 0.00 0.00 37 1012.1
20260507020331 76 0.0 0.0 0.00 0.00 0.00 37 1012.0
20260507020131 76 0.0 0.0 0.00 0.00 0.00 37 1012.0
20260507015931 76 0.0 0.0 0.00 0.00 0.00 37 1012.0
20260507015731 76 0.0 0.0 0.00 0.00 0.00 37 1012.0
20260507015531 76 0.0 0.0 0.00 0.00 0.00 37 1012.2
20260507015331 76 0.0 0.0 0.00 0.00 0.00 37 1012.1
20260507015131 76 0.0 0.0 0.00 0.00 0.00 37 1012.1
20260507014931 76 0.0 0.0 0.00 0.00 0.00 37 1012.0
20260507014731 76 0.0 0.0 0.00 0.00 0.00 37 1012.1
20260507014531 76 0.0 0.0 0.00 0.00 0.00 37 1012.1
20260507014331 76 0.0 0.0 0.00 0.00 0.00 37 1012.1
20260507014131 76 0.0 0.0 0.00 0.00 0.00 37 1012.1
20260507013931 76 0.0 0.0 0.00 0.00 0.00 37 1012.2
20260507013731 76 0.0 0.0 0.00 0.00 0.00 37 1012.1
20260507013531 76 0.0 0.0 0.00 0.00 0.00 37 1012.2
20260507013331 76 0.0 0.0 0.00 0.00 0.00 37 1012.1
20260507013131 76 0.0 0.0 0.00 0.00 0.00 37 1012.2
20260507012931 76 0.0 0.0 0.00 0.00 0.00 37 1012.2
20260507012731 76 0.0 0.0 0.00 0.00 0.00 37 1012.2
20260507012531 76 0.0 0.0 0.00 0.00 0.00 37 1012.1
20260507012331 76 0.0 0.0 0.00 0.00 0.00 37 1012.2
20260507012131 76 0.0 0.0 0.00 0.00 0.00 37 1012.3
20260507011931 76 0.0 0.0 0.00 0.00 0.00 38 1012.2
20260507011731 76 0.0 0.0 0.00 0.00 0.00 37 1012.2
20260507011531 76 0.0 0.0 0.00 0.00 0.00 37 1012.1
20260507011331 76 0.0 0.0 0.00 0.00 0.00 37 1012.2
20260507011131 76 0.0 0.0 0.00 0.00 0.00 37 1012.1
20260507010931 76 0.0 0.0 0.00 0.00 0.00 37 1012.1
20260507010731 76 0.0 0.0 0.00 0.00 0.00 38 1012.2
20260507010531 76 0.0 0.0 0.00 0.00 0.00 38 1012.2
20260507010331 76 0.0 0.0 0.00 0.00 0.00 38 1012.2
20260507010131 76 0.0 0.0 0.00 0.00 0.00 38 1012.3
20260507005931 76 0.0 0.0 0.00 0.00 0.00 37 1012.2
20260507005731 76 0.0 0.0 0.00 0.00 0.00 37 1012.1
20260507005531 76 0.0 0.0 0.00 0.00 0.00 37 1012.1
20260507005332 76 0.0 0.0 0.00 0.00 0.00 37 1012.1
20260507005131 76 0.0 0.0 0.00 0.00 0.00 38 1012.1
20260507004931 76 0.0 0.0 0.00 0.00 0.00 38 1012.1
20260507004731 76 0.0 0.0 0.00 0.00 0.00 37 1012.2
20260507004531 76 0.0 0.0 0.00 0.00 0.00 38 1012.3
20260507004331 76 0.0 0.0 0.00 0.00 0.00 38 1012.2
20260507004131 76 0.0 0.0 0.00 0.00 0.00 38 1012.3
20260507003931 76 0.0 0.0 0.00 0.00 0.00 38 1012.4
20260507003731 76 0.0 0.0 0.00 0.00 0.00 38 1012.4
20260507003531 76 0.0 0.0 0.00 0.00 0.00 38 1012.4
20260507003331 76 0.0 0.0 0.00 0.00 0.00 38 1012.5
20260507003131 76 0.0 0.0 0.00 0.00 0.00 38 1012.5
20260507002931 76 0.0 0.0 0.00 0.00 0.00 38 1012.5
20260507002731 76 0.0 0.0 0.00 0.00 0.00 38 1012.4
20260507002531 76 0.0 0.0 0.00 0.00 0.00 38 1012.5
20260507002331 76 0.0 0.0 0.00 0.00 0.00 39 1012.4
20260507002131 76 0.0 0.0 0.00 0.00 0.00 39 1012.5
20260507001931 76 0.0 0.0 0.00 0.00 0.00 38 1012.5
20260507001731 76 0.0 0.0 0.00 0.00 0.00 39 1012.5
20260507001531 76 0.0 0.0 0.00 0.00 0.00 38 1012.5
20260507001331 76 0.0 0.0 0.00 0.00 0.00 38 1012.5
20260507001131 76 0.0 0.0 0.00 0.00 0.00 38 1012.5
20260507000931 76 0.0 0.0 0.00 0.00 0.00 38 1012.6
20260507000731 76 0.0 0.0 0.00 0.00 0.00 38 1012.6
20260507000531 76 0.0 0.0 0.00 0.00 0.00 39 1012.6
20260507000331 76 0.0 0.0 0.00 0.00 0.00 39 1012.6
20260507000131 76 0.0 0.0 0.00 0.00 0.00 39 1012.7
20260506235931 76 0.0 0.0 0.00 0.00 0.00 39 1012.7
20260506235731 76 0.0 0.0 0.00 0.00 0.00 38 1012.7
20260506235531 76 0.0 0.0 0.00 0.00 0.00 38 1012.8
20260506235331 76 0.0 0.0 0.00 0.00 0.00 38 1012.8
20260506235131 76 0.0 0.0 0.00 0.00 0.00 39 1012.7
20260506234931 76 0.0 0.0 0.00 0.00 0.00 39 1012.8
20260506234731 76 0.0 0.0 0.00 0.00 0.00 38 1012.8
20260506234531 76 0.0 0.0 0.00 0.00 0.00 38 1012.8
20260506234331 76 0.0 0.0 0.00 0.00 0.00 38 1012.8
20260506234131 76 0.0 0.0 0.00 0.00 0.00 38 1012.8
20260506233931 76 0.0 0.0 0.00 0.00 0.00 38 1012.8
20260506233731 76 0.0 0.0 0.00 0.00 0.00 39 1012.8
20260506233531 76 0.0 0.0 0.00 0.00 0.00 39 1012.8
20260506233331 76 0.0 0.0 0.00 0.00 0.00 39 1012.8
20260506233131 76 0.0 0.0 0.00 0.00 0.00 39 1012.8
20260506232931 76 0.0 0.0 0.00 0.00 0.00 39 1012.8
20260506232731 76 0.0 0.0 0.00 0.00 0.00 39 1012.8
20260506232531 76 0.0 0.0 0.00 0.00 0.00 39 1012.9
20260506232331 76 0.0 0.0 0.00 0.00 0.00 39 1012.8
20260506232131 76 0.0 0.0 0.00 0.00 0.00 39 1012.8
20260506231931 76 0.0 0.0 0.00 0.00 0.00 39 1012.9
20260506231731 76 0.0 0.0 0.00 0.00 0.00 39 1012.9
20260506231531 76 0.0 0.0 0.00 0.00 0.00 39 1012.8
20260506231331 76 0.0 0.0 0.00 0.00 0.00 39 1012.9
20260506231131 77 0.0 0.0 0.00 0.00 0.00 39 1013.0
20260506230931 77 0.0 0.0 0.00 0.00 0.00 39 1013.0
20260506230731 77 0.0 0.0 0.00 0.00 0.00 39 1012.9
20260506230531 77 0.0 0.0 0.00 0.00 0.00 39 1012.9
20260506230331 77 0.0 0.0 0.00 0.00 0.00 39 1012.9
20260506230131 77 0.0 0.0 0.00 0.00 0.00 39 1013.0
20260506225931 77 0.0 0.0 0.00 0.00 0.00 39 1012.9
20260506225731 77 0.0 0.0 0.00 0.00 0.00 39 1012.9
20260506225531 77 0.0 0.0 0.00 0.00 0.00 39 1013.0
20260506225331 77 0.0 0.0 0.00 0.00 0.00 39 1013.0
20260506225131 77 0.0 0.0 0.00 0.00 0.00 39 1012.9
20260506224931 76 0.0 0.0 0.00 0.00 0.00 39 1012.9
20260506224731 77 0.0 0.0 0.00 0.00 0.00 39 1012.9
20260506224531 76 0.0 0.0 0.00 0.00 0.00 39 1012.9
20260506224331 76 0.0 0.0 0.00 0.00 0.00 39 1013.0
20260506224131 77 0.0 0.0 0.00 0.00 0.00 39 1013.0
20260506223931 76 0.0 0.0 0.00 0.00 0.00 39 1013.0
20260506223731 77 0.0 0.0 0.00 0.00 0.00 39 1013.0
20260506223531 77 0.0 0.0 0.00 0.00 0.00 39 1013.0
20260506223331 76 0.0 0.0 0.00 0.00 0.00 39 1013.0
20260506223131 76 0.0 0.0 0.00 0.00 0.00 39 1013.0
20260506222934 77 0.0 0.0 0.00 0.00 0.00 39 1013.0
20260506222731 77 0.0 0.0 0.00 0.00 0.00 39 1013.0
20260506222531 77 0.0 0.0 0.00 0.00 0.00 39 1013.0
20260506222331 77 0.0 0.0 0.00 0.00 0.00 39 1013.1
20260506222131 77 0.0 0.0 0.00 0.00 0.00 39 1013.0
20260506221931 77 0.0 0.0 0.00 0.00 0.00 39 1013.1
20260506221731 77 0.0 0.0 0.00 0.00 0.00 39 1013.0
20260506221531 77 0.0 0.0 0.00 0.00 0.00 39 1012.9
20260506221331 77 0.0 0.0 0.00 0.00 0.00 39 1012.9
20260506221131 77 0.0 0.0 0.00 0.00 0.00 39 1012.9
20260506220931 77 0.0 0.0 0.00 0.00 0.00 39 1013.0
20260506220731 77 0.0 0.0 0.00 0.00 0.00 38 1012.9
20260506220531 77 0.0 0.0 0.00 0.00 0.00 38 1012.9
20260506220331 77 0.0 0.0 0.00 0.00 0.00 38 1013.0
20260506220131 77 0.0 0.0 0.00 0.00 0.00 38 1013.0
20260506215931 77 0.0 0.0 0.00 0.00 0.00 38 1013.1
20260506215731 77 0.0 0.0 0.00 0.00 0.00 38 1013.1
20260506215531 77 0.0 0.0 0.00 0.00 0.00 38 1013.0
20260506215331 77 0.0 0.0 0.00 0.00 0.00 38 1013.0
20260506215131 77 0.0 0.0 0.00 0.00 0.00 38 1013.0
20260506214931 77 0.0 0.0 0.00 0.00 0.00 38 1013.0
20260506214731 77 0.0 0.0 0.00 0.00 0.00 38 1013.0
20260506214531 77 0.0 0.0 0.00 0.00 0.00 38 1013.0
20260506214331 77 0.0 0.0 0.00 0.00 0.00 38 1013.0
20260506214131 77 0.0 0.0 0.00 0.00 0.00 38 1013.0
20260506213931 77 0.0 0.0 0.00 0.00 0.00 38 1013.1
20260506213731 77 0.0 0.0 0.00 0.00 0.00 38 1013.0
20260506213531 77 0.0 0.0 0.00 0.00 0.00 39 1013.0
20260506213331 77 0.0 0.0 0.00 0.00 0.00 38 1013.0
20260506213131 77 0.0 0.0 0.00 0.00 0.00 39 1013.1
20260506212931 77 0.0 0.0 0.00 0.00 0.00 38 1013.0
20260506212731 77 0.0 0.0 0.00 0.00 0.00 38 1013.0
20260506212531 77 0.0 0.0 0.00 0.00 0.00 38 1013.0
20260506212331 77 0.0 0.0 0.00 0.00 0.00 38 1012.9
20260506212131 77 0.0 0.0 0.00 0.00 0.00 38 1012.9
20260506211931 77 0.0 0.0 0.00 0.00 0.00 38 1013.0
20260506211731 77 0.0 0.0 0.00 0.00 0.00 38 1012.9
20260506211531 77 0.0 0.0 0.00 0.00 0.00 38 1012.8
20260506211331 77 0.0 0.0 0.00 0.00 0.00 38 1012.8
20260506211131 77 0.0 0.0 0.00 0.00 0.00 38 1012.7
20260506210931 77 0.0 0.0 0.00 0.00 0.00 38 1012.7
20260506210731 77 0.0 0.0 0.00 0.00 0.00 39 1012.8
20260506210531 77 0.0 0.0 0.00 0.00 0.00 39 1012.6
20260506210331 77 0.0 0.0 0.00 0.00 0.00 39 1012.6
20260506210131 77 0.0 0.0 0.00 0.00 0.00 39 1012.6
20260506205931 77 0.0 0.0 0.00 0.00 0.00 39 1012.6
20260506205731 77 0.0 0.0 0.00 0.00 0.00 39 1012.6
20260506205531 77 0.0 0.0 0.00 0.00 0.00 39 1012.7
20260506205331 77 0.0 0.0 0.00 0.00 0.00 38 1012.6
20260506205131 77 0.0 0.0 0.00 0.00 0.00 38 1012.6
20260506204931 77 0.0 0.0 0.00 0.00 0.00 38 1012.6
20260506204731 77 0.0 0.0 0.00 0.00 0.00 38 1012.6
20260506204531 77 0.0 0.0 0.00 0.00 0.00 38 1012.5
20260506204331 77 0.0 0.0 0.00 0.00 0.00 38 1012.5
20260506204131 77 0.0 0.0 0.00 0.00 0.00 38 1012.5
20260506203931 77 0.0 0.0 0.00 0.00 0.00 38 1012.5
20260506203731 77 0.0 0.0 0.00 0.00 0.00 38 1012.4
20260506203531 77 0.0 0.0 0.00 0.00 0.00 38 1012.5
20260506203331 77 0.0 0.0 0.00 0.00 0.00 39 1012.5
20260506203131 77 0.0 0.0 0.00 0.00 0.00 39 1012.4
20260506202931 77 0.0 0.0 0.00 0.00 0.00 39 1012.4
20260506202731 77 0.0 0.0 0.00 0.00 0.00 39 1012.4
20260506202531 76 0.0 0.0 0.00 0.00 0.00 39 1012.4
20260506202331 76 0.0 0.0 0.00 0.00 0.00 39 1012.4
20260506202131 77 0.0 0.0 0.00 0.00 0.00 39 1012.3
20260506201931 77 0.0 0.0 0.00 0.00 0.00 38 1012.3
20260506201731 77 0.0 0.0 0.00 0.00 0.00 39 1012.4
20260506201531 76 0.0 0.0 0.00 0.00 0.00 39 1012.2
20260506201331 77 0.0 0.0 0.00 0.00 0.00 39 1012.2
20260506201131 76 0.0 0.0 0.00 0.00 0.00 39 1012.2
20260506200931 77 0.0 0.0 0.00 0.00 0.00 38 1012.2
20260506200731 77 0.0 0.0 0.00 0.00 0.00 38 1012.2
20260506200531 77 0.0 0.0 0.00 0.00 0.00 38 1012.2
20260506200331 77 0.0 0.0 0.00 0.00 0.00 38 1012.2
20260506200131 77 0.0 0.0 0.00 0.00 0.00 38 1012.1
20260506195931 77 0.0 0.0 0.00 0.00 0.00 38 1012.1
20260506195731 77 0.0 0.0 0.00 0.00 0.00 38 1012.0
20260506195531 77 0.0 0.0 0.00 0.00 0.00 38 1012.0
20260506195331 77 0.0 0.0 0.00 0.00 0.00 38 1012.0
20260506195131 77 0.0 0.0 0.00 0.00 0.00 39 1012.1
20260506194931 77 0.0 0.0 0.00 0.00 0.00 39 1012.1
20260506194731 77 0.0 0.0 0.00 0.00 0.00 39 1012.0
20260506194531 77 0.0 0.0 0.00 0.00 0.00 38 1012.0
20260506194331 77 0.0 0.0 0.00 0.00 0.00 38 1012.0
20260506194131 77 0.0 0.0 0.00 0.00 0.00 38 1011.9
20260506193931 77 0.0 0.0 0.00 0.00 0.00 38 1011.8
20260506193731 77 0.0 0.0 0.00 0.00 0.00 38 1011.9
20260506193531 77 0.0 0.0 0.00 0.00 0.00 39 1011.9
20260506193331 77 0.0 0.0 0.00 0.00 0.00 39 1011.9
20260506193131 76 0.0 0.0 0.00 0.00 0.00 39 1011.9
20260506192931 77 0.0 0.0 0.00 0.00 0.00 39 1011.9
20260506192731 76 0.0 0.0 0.00 0.00 0.00 39 1011.8
20260506192531 76 0.0 0.0 0.00 0.00 0.00 39 1011.8
20260506192331 77 0.0 0.0 0.00 0.00 0.00 39 1011.8
20260506192131 77 0.0 0.0 0.00 0.00 0.00 39 1011.8
20260506191931 76 0.0 0.0 0.00 0.00 0.00 39 1011.7
20260506191731 76 0.0 0.0 0.00 0.00 0.00 39 1011.7
20260506191531 76 0.0 0.0 0.00 0.00 0.00 39 1011.6
20260506191331 76 0.0 0.0 0.00 0.00 0.00 39 1011.6
20260506191131 76 0.0 0.0 0.00 0.00 0.00 39 1011.6
20260506190931 76 0.0 0.0 0.00 0.00 0.00 39 1011.6
20260506190731 76 0.0 0.0 0.00 0.00 0.00 39 1011.6
20260506190531 76 0.0 0.0 0.00 0.00 0.00 39 1011.5
20260506190331 76 0.0 0.0 0.00 0.00 0.00 39 1011.7
20260506190131 76 0.0 0.0 0.00 0.00 0.00 39 1011.6
20260506185931 76 0.0 0.0 0.00 0.00 0.00 39 1011.5
20260506185731 76 0.0 0.0 0.00 0.00 0.00 39 1011.5
20260506185531 76 0.0 0.0 0.00 0.00 0.00 39 1011.6
20260506185331 76 0.0 0.0 0.00 0.00 0.00 39 1011.6
20260506185131 76 0.0 0.0 0.00 0.00 0.00 39 1011.5
20260506184931 76 0.0 0.0 0.00 0.00 0.00 39 1011.6
20260506184731 76 0.0 0.0 0.00 0.00 0.00 39 1011.6
20260506184531 76 0.0 0.0 0.00 0.00 0.00 39 1011.6
20260506184331 76 0.0 0.0 0.00 0.00 0.00 39 1011.6
20260506184131 76 0.0 0.0 0.00 0.00 0.00 39 1011.5
20260506183931 76 0.0 0.0 0.00 0.00 0.00 39 1011.6
20260506183731 76 0.0 0.0 0.00 0.00 0.00 39 1011.5
20260506183531 76 0.0 0.0 0.00 0.00 0.00 39 1011.4
20260506183331 76 0.0 0.0 0.00 0.00 0.00 39 1011.3
20260506183131 76 0.0 0.0 0.00 0.00 0.00 39 1011.3
20260506182931 76 0.0 0.0 0.00 0.00 0.00 39 1011.3
20260506182731 77 0.0 0.0 0.00 0.00 0.00 39 1011.4
20260506182531 77 0.0 0.0 0.00 0.00 0.00 39 1011.4
20260506182331 76 0.0 0.0 0.00 0.00 0.00 39 1011.4
20260506182131 76 0.0 0.0 0.00 0.00 0.00 39 1011.3
20260506181931 76 0.0 0.0 0.00 0.00 0.00 40 1011.3
20260506181731 76 0.0 0.0 0.00 0.00 0.00 40 1011.2
20260506181531 76 0.0 0.0 0.00 0.00 0.00 40 1011.2
20260506181331 76 0.0 0.0 0.00 0.00 0.00 39 1011.2
20260506181131 76 0.0 0.0 0.00 0.00 0.00 39 1011.1
20260506180931 76 0.0 0.0 0.00 0.00 0.00 40 1011.1
20260506180731 76 0.0 0.0 0.00 0.00 0.00 40 1011.0
20260506180531 76 0.0 0.0 0.00 0.00 0.00 40 1011.0
20260506180331 75 0.0 0.0 0.00 0.00 0.00 40 1011.1
20260506180131 75 0.0 0.0 0.00 0.00 0.00 40 1011.0
20260506175931 75 0.0 0.0 0.00 0.00 0.00 40 1011.0
20260506175731 75 0.0 0.0 0.00 0.00 0.00 40 1011.0
20260506175531 74 0.0 0.0 0.00 0.00 0.00 41 1011.1
20260506175331 74 0.0 0.0 0.00 0.00 0.00 41 1011.1
20260506175131 75 0.0 0.0 0.00 0.00 0.00 41 1011.0
20260506174931 75 0.0 0.0 0.00 0.00 0.00 40 1011.0
20260506174731 75 0.0 0.0 0.00 0.00 0.00 41 1011.1
20260506174531 75 0.0 0.0 0.00 0.00 0.00 41 1011.1
20260506174331 75 0.0 0.0 0.00 0.00 0.00 41 1011.1
20260506174131 74 0.0 0.0 0.00 0.00 0.00 41 1011.1
20260506173932 74 0.0 0.0 0.00 0.00 0.00 42 1011.1
20260506173331 75 0.0 0.0 0.00 0.00 0.00 40 1011.1
20260506173131 75 0.0 0.0 0.00 0.00 0.00 41 1011.1
20260506172931 76 0.0 0.0 0.00 0.00 0.00 40 1011.1
20260506172731 75 0.0 0.0 0.00 0.00 0.00 40 1011.2
20260506172531 76 0.0 0.0 0.00 0.00 0.00 40 1011.1
20260506172331 76 0.0 0.0 0.00 0.00 0.00 39 1011.2
20260506172131 76 0.0 0.0 0.00 0.00 0.00 40 1011.2
20260506171931 76 0.0 0.0 0.00 0.00 0.00 40 1011.2
20260506171731 75 0.0 0.0 0.00 0.00 0.00 40 1011.3
20260506171531 75 0.0 0.0 0.00 0.00 0.00 40 1011.3
20260506171331 75 0.0 0.0 0.00 0.00 0.00 40 1011.3
20260506171131 76 0.0 0.0 0.00 0.00 0.00 40 1011.3
20260506170931 76 0.0 0.0 0.00 0.00 0.00 40 1011.2
20260506170731 76 0.0 0.0 0.00 0.00 0.00 40 1011.2
20260506170531 75 0.0 0.0 0.00 0.00 0.00 40 1011.3
20260506170331 75 0.0 0.0 0.00 0.00 0.00 40 1011.3
20260506170131 75 0.0 0.0 0.00 0.00 0.00 41 1011.3
20260506165931 75 0.0 0.0 0.00 0.00 0.00 41 1011.3
20260506165731 76 0.0 0.0 0.00 0.00 0.00 41 1011.3
20260506165531 75 0.0 0.0 0.00 0.00 0.00 41 1011.4
20260506165331 75 0.0 0.0 0.00 0.00 0.00 40 1011.4
20260506165131 75 0.0 0.0 0.00 0.00 0.00 41 1011.4
20260506164931 74 0.0 0.0 0.00 0.00 0.00 42 1011.5
20260506164731 75 0.0 0.0 0.00 0.00 0.00 41 1011.4
20260506164531 75 0.0 0.0 0.00 0.00 0.00 42 1011.5
20260506164331 74 0.0 0.0 0.00 0.00 0.00 43 1011.5
20260506164131 74 0.0 0.0 0.00 0.00 0.00 42 1011.5
20260506163931 73 0.0 0.0 0.00 0.00 0.00 43 1011.5
20260506163731 74 0.0 0.0 0.00 0.00 0.00 42 1011.4
20260506163531 74 0.0 0.0 0.00 0.00 0.00 42 1011.5
20260506163331 74 0.0 0.0 0.00 0.00 0.00 42 1011.5
20260506163131 76 0.0 0.0 0.00 0.00 0.00 40 1011.4
20260506162931 76 0.0 0.0 0.00 0.00 0.00 41 1011.4
20260506162731 75 0.0 0.0 0.00 0.00 0.00 41 1011.4
20260506162531 75 0.0 0.0 0.00 0.00 0.00 41 1011.3
20260506162331 76 0.0 0.0 0.00 0.00 0.00 40 1011.4
20260506162131 75 0.0 0.0 0.00 0.00 0.00 41 1011.4
20260506161931 75 0.0 0.0 0.00 0.00 0.00 41 1011.4
20260506161731 75 0.0 0.0 0.00 0.00 0.00 41 1011.4
20260506161531 75 0.0 0.0 0.00 0.00 0.00 41 1011.4
20260506161331 75 0.0 0.0 0.00 0.00 0.00 41 1011.3
20260506161131 76 0.0 0.0 0.00 0.00 0.00 41 1011.3
20260506160931 75 0.0 0.0 0.00 0.00 0.00 41 1011.3
20260506160731 76 0.0 0.0 0.00 0.00 0.00 41 1011.2
20260506160531 75 0.0 0.0 0.00 0.00 0.00 41 1011.2
20260506160331 75 0.0 0.0 0.00 0.00 0.00 41 1011.4
20260506160131 75 0.0 0.0 0.00 0.00 0.00 41 1011.3
20260506155931 75 0.0 0.0 0.00 0.00 0.00 41 1011.3
20260506155731 74 0.0 0.0 0.00 0.00 0.00 42 1011.3
20260506155531 75 0.0 0.0 0.00 0.00 0.00 41 1011.4
20260506155331 75 0.0 0.0 0.00 0.00 0.00 41 1011.4
20260506155132 74 0.0 0.0 0.00 0.00 0.00 41 1011.4
20260506154931 74 0.0 0.0 0.00 0.00 0.00 41 1011.3
20260506154731 75 0.0 0.0 0.00 0.00 0.00 41 1011.4
20260506154531 75 0.0 0.0 0.00 0.00 0.00 41 1011.4
20260506154331 76 0.0 0.0 0.00 0.00 0.00 40 1011.3
20260506154131 75 0.0 0.0 0.00 0.00 0.00 41 1011.3
20260506153931 75 0.0 0.0 0.00 0.00 0.00 41 1011.4
20260506153731 75 0.0 0.0 0.00 0.00 0.00 41 1011.4
20260506153531 74 0.0 0.0 0.00 0.00 0.00 42 1011.4
20260506153331 74 0.0 0.0 0.00 0.00 0.00 42 1011.2
20260506153131 73 0.0 0.0 0.00 0.00 0.00 44 1011.2
20260506152931 73 0.0 0.0 0.00 0.00 0.00 43 1011.3
20260506152731 74 0.0 0.0 0.00 0.00 0.00 42 1011.2
20260506152531 74 0.0 0.0 0.00 0.00 0.00 41 1011.3
20260506152331 75 0.0 0.0 0.00 0.00 0.00 41 1011.3
20260506152131 75 0.0 0.0 0.00 0.00 0.00 41 1011.1
20260506151931 75 0.0 0.0 0.00 0.00 0.00 41 1011.0
20260506151731 74 0.0 0.0 0.00 0.00 0.00 42 1011.0
20260506151531 74 0.0 0.0 0.00 0.00 0.00 42 1010.9
20260506151331 74 0.0 0.0 0.00 0.00 0.00 42 1010.9
20260506151131 74 0.0 0.0 0.00 0.00 0.00 42 1011.0
20260506150931 73 0.0 0.0 0.00 0.00 0.00 43 1011.0
20260506150731 73 0.0 0.0 0.00 0.00 0.00 42 1011.2
20260506150531 75 0.0 0.0 0.00 0.00 0.00 41 1011.2
20260506150331 75 0.0 0.0 0.00 0.00 0.00 40 1011.3
20260506150131 75 0.0 0.0 0.00 0.00 0.00 40 1011.4
20260506145931 75 0.0 0.0 0.00 0.00 0.00 41 1011.5
20260506145731 75 0.0 0.0 0.00 0.00 0.00 40 1011.6
20260506145531 76 0.0 0.0 0.00 0.00 0.00 40 1011.6
20260506145331 75 0.0 0.0 0.00 0.00 0.00 40 1011.6
20260506145131 75 0.0 0.0 0.00 0.00 0.00 40 1011.6
20260506144931 75 0.0 0.0 0.00 0.00 0.00 40 1011.5
20260506144731 74 0.0 0.0 0.00 0.00 0.00 41 1011.6
20260506144531 74 0.0 0.0 0.00 0.00 0.00 40 1011.5
20260506144331 75 0.0 0.0 0.00 0.00 0.00 40 1011.5
20260506144131 75 0.0 0.0 0.00 0.00 0.00 40 1011.6
20260506143931 75 0.0 0.0 0.00 0.00 0.00 40 1011.5
20260506143731 74 0.0 0.0 0.00 0.00 0.00 40 1011.6
20260506143531 75 0.0 0.0 0.00 0.00 0.00 41 1011.6
20260506143331 74 0.0 0.0 0.00 0.00 0.00 41 1011.6
20260506143131 73 0.0 0.0 0.00 0.00 0.00 42 1011.7
20260506142931 73 0.0 0.0 0.00 0.00 0.00 42 1011.8
20260506142731 73 0.0 0.0 0.00 0.00 0.00 42 1011.7
20260506142531 74 0.0 0.0 0.00 0.00 0.00 41 1011.6
20260506142331 75 0.0 0.0 0.00 0.00 0.00 40 1011.6
20260506142131 75 0.0 0.0 0.00 0.00 0.00 41 1011.6
20260506141931 74 0.0 0.0 0.00 0.00 0.00 41 1011.7
20260506141731 74 0.0 0.0 0.00 0.00 0.00 42 1011.7
20260506141531 73 0.0 0.0 0.00 0.00 0.00 42 1011.7
20260506141331 73 0.0 0.0 0.00 0.00 0.00 42 1011.7
20260506141133 73 0.0 0.0 0.00 0.00 0.00 43 1011.8
20260506140931 73 0.0 0.0 0.00 0.00 0.00 43 1011.7
20260506140731 72 0.0 0.0 0.00 0.00 0.00 44 1011.8
20260506140531 73 0.0 0.0 0.00 0.00 0.00 43 1011.7
20260506140331 73 0.0 0.0 0.00 0.00 0.00 43 1011.8
20260506140131 72 0.0 0.0 0.00 0.00 0.00 44 1011.8
20260506135931 73 0.0 0.0 0.00 0.00 0.00 42 1011.7
20260506135731 73 0.0 0.0 0.00 0.00 0.00 42 1011.6
20260506135531 72 0.0 0.0 0.00 0.00 0.00 43 1011.7
20260506135331 72 0.0 0.0 0.00 0.00 0.00 44 1011.7
20260506135131 73 0.0 0.0 0.00 0.00 0.00 44 1011.6
20260506134931 73 0.0 0.0 0.00 0.00 0.00 43 1011.7
20260506134731 72 0.0 0.0 0.00 0.00 0.00 44 1011.6
20260506134531 73 0.0 0.0 0.00 0.00 0.00 44 1011.7
20260506134331 72 0.0 0.0 0.00 0.00 0.00 44 1011.7
20260506134131 73 0.0 0.0 0.00 0.00 0.00 43 1011.8
20260506133931 74 0.0 0.0 0.00 0.00 0.00 42 1011.7
20260506133731 74 0.0 0.0 0.00 0.00 0.00 42 1011.6
20260506133531 75 0.0 0.0 0.00 0.00 0.00 42 1011.6
20260506133331 75 0.0 0.0 0.00 0.00 0.00 41 1011.7
20260506133131 74 0.0 0.0 0.00 0.00 0.00 42 1011.6
20260506132931 74 0.0 0.0 0.00 0.00 0.00 41 1011.6
20260506132731 74 0.0 0.0 0.00 0.00 0.00 41 1011.6
20260506132531 74 0.0 0.0 0.00 0.00 0.00 41 1011.7
20260506132331 74 0.0 0.0 0.00 0.00 0.00 42 1011.7
20260506132131 74 0.0 0.0 0.00 0.00 0.00 43 1011.7
20260506131931 73 0.0 0.0 0.00 0.00 0.00 42 1011.7
20260506131731 74 0.0 0.0 0.00 0.00 0.00 42 1011.8
20260506131531 74 0.0 0.0 0.00 0.00 0.00 41 1011.8
20260506131331 75 0.0 0.0 0.00 0.00 0.00 40 1011.7
20260506131131 75 0.0 0.0 0.00 0.00 0.00 39 1011.7
20260506130931 75 0.0 0.0 0.00 0.00 0.00 40 1011.7
20260506130731 75 0.0 0.0 0.00 0.00 0.00 39 1011.9
20260506130531 76 0.0 0.0 0.00 0.00 0.00 39 1011.8
20260506130331 76 0.0 0.0 0.00 0.00 0.00 37 1011.6
20260506130131 75 0.0 0.0 0.00 0.00 0.00 37 1011.7
20260506125931 75 0.0 0.0 0.00 0.00 0.00 38 1011.8
20260506125731 75 0.0 0.0 0.00 0.00 0.00 38 1011.7
20260506125531 74 0.0 0.0 0.00 0.00 0.00 40 1011.9
20260506125331 75 0.0 0.0 0.00 0.00 0.00 39 1011.8
20260506125131 75 0.0 0.0 0.00 0.00 0.00 40 1011.8
20260506124931 75 0.0 0.0 0.00 0.00 0.00 40 1011.8
20260506124731 75 0.0 0.0 0.00 0.00 0.00 40 1011.9
20260506124531 75 0.0 0.0 0.00 0.00 0.00 40 1011.9
20260506124331 74 0.0 0.0 0.00 0.00 0.00 40 1011.9
20260506124131 74 0.0 0.0 0.00 0.00 0.00 40 1011.9